LIGHT2 CYVR-CYYZ

Flight info

Callsign LIGHT2
Flight time 2h 47m
Altitude 38000
Route ALNOD DCT IKNIX DCT MEDAK DCT GORAK DCT YBR DCT GERTY DCT AGLIN DCT OTNIK BOXUM7
Aircraft F35C/M-SDFGRWY/LB1

Departure

Time 2026-05-04 04:03
Airport Vancouver International Airport (CYVR)

Arrival

Time 2026-05-04 06:50
Airport Toronto Pearson International Airport (CYYZ)
Time Latitude Longitude Altitude Speed Heading
2026-05-04 03:53 49.18867 -123.16670 21 ft 0 kts 10°
2026-05-04 03:59 49.18868 -123.16670 21 ft 1 kts 10°
2026-05-04 03:59 49.18869 -123.16670 21 ft 0 kts 10°
2026-05-04 04:00 49.18873 -123.16667 21 ft 2 kts 27°
2026-05-04 04:01 49.18848 -123.16625 21 ft 11 kts 176°
2026-05-04 04:01 49.18815 -123.16577 21 ft 12 kts 73°
2026-05-04 04:01 49.18768 -123.16471 21 ft 18 kts 170°
2026-05-04 04:01 49.18701 -123.16290 23 ft 19 kts 121°
2026-05-04 04:02 49.18601 -123.16190 22 ft 0 kts 198°
2026-05-04 04:02 49.18601 -123.16191 22 ft 0 kts 198°
2026-05-04 04:02 49.18570 -123.16204 22 ft 10 kts 193°
2026-05-04 04:02 49.18503 -123.16244 24 ft 10 kts 237°
2026-05-04 04:03 49.18501 -123.16338 21 ft 9 kts 281°
2026-05-04 04:03 49.18594 -123.17105 20 ft 179 kts 280°
2026-05-04 04:03 49.18885 -123.19667 198 ft 282 kts 280°
2026-05-04 04:03 49.19302 -123.23376 2037 ft 416 kts 281°
2026-05-04 04:04 49.19861 -123.28291 4509 ft 509 kts 280°
2026-05-04 04:04 49.20420 -123.33966 7291 ft 562 kts 274°
2026-05-04 04:04 49.20359 -123.39607 9378 ft 469 kts 266°
2026-05-04 04:04 49.20103 -123.44151 9251 ft 402 kts 264°
2026-05-04 04:05 49.19560 -123.48115 8251 ft 364 kts 249°
2026-05-04 04:05 49.18227 -123.51170 7257 ft 332 kts 221°
2026-05-04 04:05 49.16221 -123.52041 4864 ft 312 kts 161°
2026-05-04 04:05 49.14400 -123.50179 3540 ft 301 kts 135°
2026-05-04 04:06 49.13189 -123.47827 3687 ft 279 kts 119°
2026-05-04 04:06 49.12478 -123.45113 3826 ft 276 kts 102°
2026-05-04 04:06 49.12347 -123.42251 4447 ft 273 kts 84°
2026-05-04 04:06 49.12769 -123.39431 5015 ft 277 kts 69°
2026-05-04 04:07 49.13511 -123.36778 5004 ft 274 kts 65°
2026-05-04 04:07 49.14267 -123.34112 4998 ft 274 kts 65°
2026-05-04 04:07 49.15020 -123.31454 4981 ft 271 kts 65°
2026-05-04 04:07 49.15780 -123.28806 4973 ft 272 kts 65°
2026-05-04 04:08 49.16502 -123.26117 4966 ft 274 kts 72°
2026-05-04 04:08 49.16816 -123.23279 4947 ft 275 kts 85°
2026-05-04 04:08 49.16926 -123.20213 5106 ft 317 kts 86°
2026-05-04 04:08 49.17041 -123.16917 5050 ft 309 kts 86°
2026-05-04 04:09 49.17168 -123.13667 5029 ft 308 kts 85°
2026-05-04 04:09 49.17309 -123.10407 5017 ft 306 kts 85°
2026-05-04 04:09 49.17414 -123.07142 5009 ft 307 kts 86°
2026-05-04 04:09 49.17519 -123.03886 5009 ft 308 kts 86°
2026-05-04 04:10 49.17636 -123.00642 5006 ft 307 kts 86°
2026-05-04 04:10 49.17680 -122.97379 5005 ft 307 kts 93°
2026-05-04 04:10 49.17527 -122.94122 5007 ft 307 kts 94°
2026-05-04 04:10 49.17360 -122.90873 5009 ft 307 kts 96°
2026-05-04 04:11 49.17042 -122.87645 5006 ft 307 kts 98°
2026-05-04 04:11 49.16718 -122.84426 5005 ft 308 kts 98°
2026-05-04 04:11 49.16397 -122.81199 5006 ft 306 kts 98°
2026-05-04 04:11 49.16068 -122.77954 5007 ft 307 kts 98°
2026-05-04 04:12 49.15753 -122.74732 5008 ft 308 kts 98°
2026-05-04 04:12 49.15559 -122.71486 5009 ft 307 kts 90°
2026-05-04 04:12 49.15545 -122.68272 5009 ft 306 kts 90°
2026-05-04 04:12 49.15550 -122.65007 5012 ft 306 kts 90°
2026-05-04 04:13 49.15334 -122.61740 5014 ft 308 kts 103°
2026-05-04 04:13 49.14479 -122.58791 5021 ft 310 kts 126°
2026-05-04 04:13 49.13184 -122.56229 5020 ft 309 kts 128°
2026-05-04 04:13 49.11849 -122.53638 5016 ft 308 kts 128°
2026-05-04 04:14 49.10550 -122.51089 5015 ft 306 kts 127°
2026-05-04 04:14 49.09235 -122.48478 5010 ft 306 kts 127°
2026-05-04 04:14 49.07940 -122.45945 5013 ft 307 kts 128°
2026-05-04 04:14 49.06609 -122.43416 5012 ft 306 kts 128°
2026-05-04 04:15 49.05264 -122.40836 5010 ft 305 kts 128°
2026-05-04 04:15 49.03963 -122.38310 5006 ft 307 kts 127°
2026-05-04 04:15 49.02677 -122.35725 5005 ft 305 kts 121°
2026-05-04 04:15 49.01826 -122.32759 5255 ft 322 kts 108°
2026-05-04 04:16 49.01001 -122.28777 6079 ft 455 kts 106°
2026-05-04 04:16 49.00036 -122.23625 6888 ft 545 kts 105°
2026-05-04 04:16 48.99152 -122.18040 7677 ft 552 kts 101°
2026-05-04 04:16 48.98331 -122.11831 8499 ft 623 kts 100°
2026-05-04 04:17 48.97536 -122.05179 9241 ft 672 kts 97°
2026-05-04 04:17 48.97008 -121.98114 10053 ft 675 kts 94°
2026-05-04 04:17 48.96647 -121.90861 10822 ft 683 kts 93°
2026-05-04 04:17 48.96354 -121.83610 11612 ft 689 kts 92°
2026-05-04 04:18 48.96155 -121.76374 12387 ft 696 kts 90°
2026-05-04 04:18 48.96508 -121.68996 13182 ft 703 kts 83°
2026-05-04 04:18 48.97115 -121.61540 13951 ft 712 kts 82°
2026-05-04 04:18 48.97736 -121.54074 14675 ft 714 kts 82°
2026-05-04 04:19 48.98363 -121.46520 15428 ft 721 kts 82°
2026-05-04 04:19 48.98986 -121.38898 16169 ft 728 kts 82°
2026-05-04 04:19 48.99606 -121.31219 16950 ft 735 kts 82°
2026-05-04 04:19 49.00224 -121.23457 17754 ft 742 kts 82°
2026-05-04 04:20 49.00842 -121.15610 18520 ft 748 kts 82°
2026-05-04 04:20 49.01452 -121.07752 19235 ft 753 kts 82°
2026-05-04 04:20 49.02066 -120.99767 19961 ft 758 kts 82°
2026-05-04 04:20 49.02671 -120.91803 20697 ft 763 kts 82°
2026-05-04 04:21 49.03281 -120.83730 21473 ft 769 kts 82°
2026-05-04 04:21 49.03890 -120.75577 22261 ft 776 kts 82°
2026-05-04 04:21 49.04499 -120.67371 23075 ft 782 kts 82°
2026-05-04 04:21 49.05107 -120.59110 23827 ft 788 kts 82°
2026-05-04 04:22 49.05710 -120.50891 24513 ft 792 kts 82°
2026-05-04 04:22 49.06323 -120.42514 25229 ft 797 kts 82°
2026-05-04 04:22 49.06933 -120.34136 25969 ft 801 kts 82°
2026-05-04 04:22 49.07547 -120.25656 26714 ft 806 kts 82°
2026-05-04 04:23 49.08163 -120.17117 27485 ft 811 kts 82°
2026-05-04 04:23 49.08776 -120.08598 28280 ft 816 kts 82°
2026-05-04 04:23 49.09399 -119.99904 29115 ft 821 kts 82°
2026-05-04 04:23 49.10018 -119.91218 29939 ft 828 kts 82°
2026-05-04 04:24 49.10638 -119.82459 30661 ft 831 kts 82°
2026-05-04 04:24 49.11244 -119.73745 31407 ft 834 kts 82°
2026-05-04 04:24 49.11852 -119.64897 32167 ft 835 kts 81°
2026-05-04 04:24 49.12568 -119.56085 32950 ft 834 kts 79°
2026-05-04 04:25 49.13409 -119.47298 33753 ft 835 kts 79°
2026-05-04 04:25 49.14252 -119.38542 34486 ft 836 kts 79°
2026-05-04 04:25 49.14821 -119.29706 35239 ft 841 kts 85°
2026-05-04 04:25 49.14777 -119.20733 36001 ft 844 kts 89°
2026-05-04 04:26 49.14523 -119.11766 36789 ft 844 kts 90°
2026-05-04 04:26 49.14189 -119.02815 37485 ft 845 kts 90°
2026-05-04 04:26 49.13823 -118.93863 37784 ft 847 kts 90°
2026-05-04 04:26 49.13440 -118.84877 37900 ft 849 kts 90°
2026-05-04 04:27 49.12664 -118.66846 37990 ft 851 kts 91°
2026-05-04 04:27 49.12220 -118.48859 38051 ft 844 kts 82°
2026-05-04 04:28 49.12907 -118.40011 38784 ft 837 kts 78°
2026-05-04 04:28 49.13830 -118.31206 39502 ft 838 kts 77°
2026-05-04 04:28 49.14843 -118.22492 40224 ft 840 kts 77°
2026-05-04 04:28 49.15913 -118.13713 40974 ft 842 kts 77°
2026-05-04 04:29 49.17021 -118.04892 41768 ft 843 kts 77°
2026-05-04 04:29 49.18144 -117.96120 42568 ft 843 kts 76°
2026-05-04 04:29 49.19288 -117.87304 43387 ft 843 kts 76°
2026-05-04 04:29 49.20443 -117.78511 44187 ft 840 kts 76°
2026-05-04 04:30 49.21602 -117.69773 44641 ft 842 kts 76°
2026-05-04 04:30 49.22776 -117.60979 44819 ft 845 kts 76°
2026-05-04 04:30 49.23964 -117.52142 44921 ft 850 kts 76°
2026-05-04 04:30 49.25161 -117.43272 44967 ft 855 kts 76°
2026-05-04 04:31 49.27592 -117.25371 45004 ft 860 kts 76°
2026-05-04 04:31 49.30037 -117.07461 45012 ft 861 kts 76°
2026-05-04 04:32 49.32507 -116.89478 45015 ft 861 kts 76°
2026-05-04 04:32 49.34985 -116.71538 45004 ft 862 kts 76°
2026-05-04 04:33 49.37487 -116.53520 45012 ft 862 kts 76°
2026-05-04 04:33 49.39946 -116.35836 45013 ft 816 kts 76°
2026-05-04 04:34 49.41098 -116.27499 45009 ft 779 kts 76°
2026-05-04 04:34 49.42205 -116.19441 44999 ft 773 kts 76°
2026-05-04 04:34 49.43331 -116.11294 45005 ft 791 kts 76°
2026-05-04 04:34 49.44478 -116.03034 45024 ft 807 kts 76°
2026-05-04 04:35 49.45668 -115.94509 45030 ft 822 kts 76°
2026-05-04 04:35 49.46875 -115.85902 45039 ft 836 kts 76°
2026-05-04 04:35 49.49332 -115.68491 45044 ft 810 kts 76°
2026-05-04 04:36 49.50507 -115.60156 45031 ft 786 kts 76°
2026-05-04 04:36 49.51656 -115.52003 45019 ft 767 kts 76°
2026-05-04 04:36 49.52774 -115.44075 45009 ft 751 kts 76°
2026-05-04 04:36 49.53873 -115.36291 45009 ft 738 kts 75°
2026-05-04 04:37 49.57073 -115.13706 45015 ft 702 kts 75°
2026-05-04 04:37 49.58110 -115.06421 45023 ft 691 kts 75°
2026-05-04 04:38 49.59153 -114.99130 45020 ft 702 kts 75°
2026-05-04 04:38 49.60222 -114.91727 45058 ft 723 kts 75°
2026-05-04 04:38 49.61351 -114.83999 45086 ft 746 kts 75°
2026-05-04 04:38 49.62516 -114.76099 45106 ft 769 kts 75°
2026-05-04 04:39 49.63729 -114.67957 45117 ft 789 kts 75°
2026-05-04 04:39 49.64980 -114.59620 45125 ft 807 kts 75°
2026-05-04 04:39 49.66271 -114.51083 45127 ft 818 kts 75°
2026-05-04 04:39 49.67568 -114.42554 45130 ft 817 kts 75°
2026-05-04 04:40 49.70178 -114.25496 45139 ft 817 kts 75°
2026-05-04 04:40 49.72364 -114.11316 45130 ft 817 kts 75°
2026-05-04 04:41 49.75026 -113.94191 45127 ft 817 kts 75°
2026-05-04 04:41 49.77692 -113.77179 45103 ft 817 kts 75°
2026-05-04 04:42 49.80400 -113.60044 45093 ft 818 kts 74°
2026-05-04 04:42 49.83125 -113.42943 45096 ft 817 kts 74°
2026-05-04 04:43 49.85867 -113.25872 45080 ft 818 kts 74°
2026-05-04 04:43 49.88637 -113.08767 45081 ft 818 kts 74°
2026-05-04 04:44 49.91427 -112.91675 45080 ft 818 kts 74°
2026-05-04 04:44 49.94245 -112.74551 45074 ft 818 kts 74°
2026-05-04 04:45 49.97034 -112.57419 45075 ft 819 kts 76°
2026-05-04 04:47 50.02503 -111.96633 45068 ft 804 kts 81°
2026-05-04 04:47 50.03894 -111.79498 45073 ft 804 kts 81°
2026-05-04 04:48 50.05308 -111.62226 45077 ft 805 kts 81°
2026-05-04 04:49 50.07841 -111.18797 45064 ft 808 kts 84°
2026-05-04 04:49 50.08583 -111.01334 45066 ft 808 kts 84°
2026-05-04 04:50 50.09333 -110.83885 45067 ft 808 kts 84°
2026-05-04 04:50 50.10104 -110.66410 45069 ft 808 kts 84°
2026-05-04 04:51 50.10895 -110.48933 45066 ft 808 kts 84°
2026-05-04 04:51 50.11707 -110.31475 45055 ft 809 kts 84°
2026-05-04 04:52 50.12537 -110.14049 45052 ft 809 kts 84°
2026-05-04 04:52 50.13393 -109.96528 45045 ft 809 kts 84°
2026-05-04 04:53 50.14261 -109.79147 45037 ft 809 kts 84°
2026-05-04 04:53 50.15156 -109.61632 45030 ft 809 kts 84°
2026-05-04 04:54 50.15060 -109.44146 45071 ft 814 kts 97°
2026-05-04 04:54 50.12939 -109.26792 45043 ft 815 kts 101°
2026-05-04 04:55 50.10503 -109.09515 45024 ft 815 kts 100°
2026-05-04 04:55 50.08933 -108.92072 45024 ft 813 kts 94°
2026-05-04 04:56 50.07878 -108.74535 45015 ft 813 kts 93°
2026-05-04 04:56 50.06926 -108.56983 45062 ft 814 kts 93°
2026-05-04 04:57 50.05982 -108.39265 45018 ft 821 kts 93°
2026-05-04 04:57 50.05050 -108.21595 44998 ft 821 kts 93°
2026-05-04 04:58 50.04132 -108.03882 44992 ft 821 kts 93°
2026-05-04 04:58 50.03231 -107.86191 44982 ft 821 kts 92°
2026-05-04 04:59 50.02353 -107.68616 44974 ft 820 kts 92°
2026-05-04 04:59 50.01484 -107.50932 44967 ft 821 kts 92°
2026-05-04 05:00 50.00629 -107.33212 44968 ft 821 kts 92°
2026-05-04 05:01 49.99381 -107.06646 44964 ft 822 kts 92°
2026-05-04 05:01 49.98575 -106.88933 44964 ft 822 kts 92°
2026-05-04 05:02 49.97790 -106.71214 44963 ft 823 kts 92°
2026-05-04 05:02 49.97030 -106.53440 44962 ft 823 kts 92°
2026-05-04 05:03 49.96297 -106.35698 44963 ft 824 kts 91°
2026-05-04 05:04 49.94909 -106.00166 44958 ft 824 kts 91°
2026-05-04 05:04 49.94252 -105.82405 44964 ft 824 kts 91°
2026-05-04 05:06 49.91883 -105.11370 44939 ft 825 kts 91°
2026-05-04 05:07 49.91355 -104.93594 44930 ft 825 kts 91°
2026-05-04 05:07 49.90851 -104.75777 44923 ft 826 kts 90°
2026-05-04 05:09 49.88848 -103.95567 44872 ft 827 kts 90°
2026-05-04 05:10 49.88462 -103.77761 44867 ft 827 kts 90°
2026-05-04 05:10 49.88279 -103.68877 44781 ft 816 kts 90°
2026-05-04 05:10 49.88112 -103.60177 44793 ft 818 kts 90°
2026-05-04 05:11 49.87803 -103.42427 44806 ft 818 kts 90°
2026-05-04 05:11 49.87526 -103.24806 44821 ft 818 kts 89°
2026-05-04 05:12 49.87276 -103.07192 44825 ft 819 kts 89°
2026-05-04 05:12 49.87051 -102.89527 44826 ft 819 kts 89°
2026-05-04 05:13 49.86853 -102.71956 44824 ft 819 kts 89°
2026-05-04 05:13 49.86677 -102.54229 44819 ft 819 kts 89°
2026-05-04 05:14 49.86529 -102.36554 44817 ft 819 kts 89°
2026-05-04 05:14 49.86407 -102.19025 44806 ft 820 kts 89°
2026-05-04 05:15 49.86308 -102.01239 44796 ft 820 kts 89°
2026-05-04 05:15 49.86029 -101.83558 44789 ft 821 kts 90°
2026-05-04 05:16 49.85638 -101.65990 44783 ft 821 kts 90°
2026-05-04 05:16 49.85352 -101.55508 44777 ft 822 kts 91°
2026-05-04 05:17 49.84676 -101.37850 44770 ft 821 kts 92°
2026-05-04 05:17 49.83947 -101.20173 44765 ft 821 kts 92°
2026-05-04 05:18 49.83230 -101.02551 44760 ft 822 kts 92°
2026-05-04 05:18 49.82536 -100.84864 44748 ft 822 kts 92°
2026-05-04 05:19 49.81871 -100.67163 44743 ft 823 kts 91°
2026-05-04 05:19 49.81237 -100.49473 44735 ft 823 kts 91°
2026-05-04 05:20 49.80634 -100.31755 44704 ft 823 kts 91°
2026-05-04 05:20 49.80063 -100.14083 44677 ft 824 kts 91°
2026-05-04 05:21 49.79521 -99.96352 44670 ft 823 kts 91°
2026-05-04 05:21 49.79014 -99.78824 44664 ft 823 kts 91°
2026-05-04 05:22 49.78530 -99.61103 44675 ft 823 kts 91°
2026-05-04 05:22 49.77876 -99.43442 44671 ft 824 kts 93°
2026-05-04 05:23 49.76950 -99.25750 44671 ft 824 kts 94°
2026-05-04 05:23 49.75988 -99.08113 44651 ft 824 kts 93°
2026-05-04 05:24 49.74957 -98.90390 44672 ft 828 kts 96°
2026-05-04 05:24 49.73342 -98.72790 44642 ft 828 kts 98°
2026-05-04 05:25 49.71564 -98.55214 44635 ft 828 kts 98°
2026-05-04 05:25 49.70078 -98.40612 44630 ft 828 kts 98°
2026-05-04 05:26 49.68304 -98.22981 44626 ft 829 kts 98°
2026-05-04 05:26 49.66286 -98.02548 44618 ft 829 kts 97°
2026-05-04 05:28 49.59947 -97.35029 44585 ft 830 kts 97°
2026-05-04 05:29 49.58387 -97.17527 44577 ft 830 kts 97°
2026-05-04 05:29 49.56838 -96.99768 44579 ft 830 kts 97°
2026-05-04 05:31 49.51011 -96.29319 44565 ft 831 kts 96°
2026-05-04 05:32 49.49630 -96.11640 44561 ft 832 kts 96°
2026-05-04 05:33 49.47624 -95.85141 44550 ft 832 kts 96°
2026-05-04 05:33 49.46327 -95.67462 44544 ft 833 kts 96°
2026-05-04 05:34 49.45059 -95.49754 44541 ft 833 kts 96°
2026-05-04 05:34 49.43820 -95.32032 44539 ft 833 kts 95°
2026-05-04 05:35 49.42435 -95.14404 44540 ft 833 kts 97°
2026-05-04 05:35 49.40758 -94.96769 44539 ft 833 kts 98°
2026-05-04 05:36 49.39015 -94.79202 44528 ft 833 kts 99°
2026-05-04 05:36 49.36934 -94.61725 44531 ft 833 kts 100°
2026-05-04 05:37 49.34709 -94.44259 44524 ft 833 kts 101°
2026-05-04 05:37 49.32490 -94.26928 44516 ft 833 kts 101°
2026-05-04 05:38 49.29189 -94.00843 44508 ft 833 kts 100°
2026-05-04 05:38 49.26763 -93.83495 44512 ft 833 kts 103°
2026-05-04 05:39 49.22302 -93.57806 44504 ft 833 kts 105°
2026-05-04 05:40 49.17745 -93.32191 44504 ft 833 kts 105°
2026-05-04 05:40 49.14408 -93.15250 44503 ft 833 kts 107°
2026-05-04 05:41 49.10910 -92.98417 44502 ft 832 kts 107°
2026-05-04 05:41 49.07399 -92.81603 44509 ft 832 kts 107°
2026-05-04 05:42 49.03906 -92.64800 44510 ft 832 kts 107°
2026-05-04 05:42 49.00426 -92.47943 44515 ft 832 kts 107°
2026-05-04 05:43 48.96988 -92.31157 44523 ft 832 kts 107°
2026-05-04 05:45 48.83495 -91.63944 44548 ft 831 kts 106°
2026-05-04 05:47 48.69846 -90.97189 43681 ft 828 kts 109°
2026-05-04 05:47 48.67917 -90.88995 42856 ft 824 kts 110°
2026-05-04 05:47 48.66001 -90.80868 42060 ft 817 kts 110°
2026-05-04 05:48 48.64110 -90.72813 41301 ft 810 kts 109°
2026-05-04 05:48 48.62245 -90.64820 40562 ft 802 kts 110°
2026-05-04 05:48 48.60339 -90.56932 39847 ft 794 kts 111°
2026-05-04 05:48 48.58425 -90.49169 39153 ft 787 kts 111°
2026-05-04 05:49 48.56510 -90.41439 38489 ft 779 kts 111°
2026-05-04 05:49 48.54638 -90.33846 38012 ft 770 kts 111°
2026-05-04 05:49 48.52771 -90.26254 37768 ft 772 kts 111°
2026-05-04 05:49 48.50909 -90.18669 37669 ft 772 kts 111°
2026-05-04 05:51 48.36063 -89.57922 37615 ft 773 kts 110°
2026-05-04 05:52 48.32366 -89.42736 37619 ft 773 kts 110°
2026-05-04 05:52 48.28696 -89.27656 37622 ft 774 kts 110°
2026-05-04 05:54 48.13859 -88.67040 37642 ft 774 kts 110°
2026-05-04 05:55 48.10027 -88.51899 37651 ft 774 kts 111°
2026-05-04 05:55 48.06209 -88.36834 37657 ft 773 kts 111°
2026-05-04 05:56 48.02405 -88.21805 37663 ft 772 kts 110°
2026-05-04 05:56 47.98652 -88.06936 37671 ft 772 kts 110°
2026-05-04 05:57 47.94875 -87.91951 37673 ft 771 kts 111°
2026-05-04 05:57 47.91012 -87.77018 37684 ft 771 kts 111°
2026-05-04 05:58 47.87128 -87.62110 37687 ft 771 kts 111°
2026-05-04 05:58 47.83260 -87.47232 37696 ft 771 kts 111°
2026-05-04 05:59 47.79404 -87.32345 37706 ft 771 kts 111°
2026-05-04 05:59 47.75556 -87.17436 37709 ft 772 kts 111°
2026-05-04 06:00 47.71729 -87.02556 37718 ft 771 kts 110°
2026-05-04 06:00 47.67840 -86.87721 37715 ft 771 kts 112°
2026-05-04 06:01 47.65799 -86.80312 37722 ft 790 kts 112°
2026-05-04 06:01 47.63652 -86.72606 37734 ft 830 kts 112°
2026-05-04 06:03 47.45785 -86.08589 37743 ft 839 kts 112°
2026-05-04 06:05 47.28376 -85.55352 32912 ft 797 kts 116°
2026-05-04 06:05 47.23268 -85.40948 31308 ft 789 kts 116°
2026-05-04 06:05 47.20690 -85.33863 30547 ft 784 kts 117°
2026-05-04 06:06 47.18094 -85.26832 29801 ft 781 kts 117°
2026-05-04 06:06 47.15508 -85.19870 28953 ft 775 kts 117°
2026-05-04 06:06 47.12931 -85.12939 28112 ft 763 kts 117°
2026-05-04 06:06 47.10410 -85.06133 27290 ft 758 kts 117°
2026-05-04 06:07 47.07914 -84.99367 26493 ft 748 kts 117°
2026-05-04 06:07 47.05463 -84.92685 25733 ft 741 kts 117°
2026-05-04 06:07 47.03117 -84.86256 25002 ft 735 kts 117°
2026-05-04 06:07 47.00697 -84.79584 24256 ft 727 kts 117°
2026-05-04 06:08 46.98337 -84.73071 23539 ft 721 kts 118°
2026-05-04 06:08 46.95863 -84.66562 22753 ft 714 kts 119°
2026-05-04 06:08 46.93456 -84.60399 21943 ft 704 kts 120°
2026-05-04 06:08 46.91028 -84.54235 21142 ft 696 kts 120°
2026-05-04 06:09 46.88598 -84.48155 20367 ft 694 kts 120°
2026-05-04 06:09 46.86037 -84.41843 19616 ft 730 kts 120°
2026-05-04 06:11 46.65790 -83.96539 15003 ft 749 kts 127°
2026-05-04 06:11 46.62644 -83.90489 14891 ft 748 kts 128°
2026-05-04 06:13 46.42022 -83.47061 13450 ft 737 kts 128°
2026-05-04 06:14 46.23863 -83.14697 12823 ft 729 kts 136°
2026-05-04 06:14 46.20266 -83.09514 12819 ft 729 kts 136°
2026-05-04 06:15 46.16669 -83.04404 12825 ft 728 kts 136°
2026-05-04 06:15 46.13042 -82.99284 12818 ft 728 kts 137°
2026-05-04 06:15 46.09429 -82.94194 12818 ft 728 kts 137°
2026-05-04 06:15 46.05813 -82.89101 12822 ft 728 kts 136°
2026-05-04 06:16 46.02195 -82.84005 12825 ft 727 kts 137°
2026-05-04 06:16 45.98591 -82.78927 12824 ft 727 kts 136°
2026-05-04 06:16 45.95072 -82.73718 12822 ft 727 kts 133°
2026-05-04 06:16 45.91815 -82.68175 12825 ft 727 kts 130°
2026-05-04 06:17 45.88639 -82.62484 12824 ft 728 kts 129°
2026-05-04 06:17 45.85478 -82.56701 12822 ft 741 kts 129°
2026-05-04 06:17 45.82313 -82.50860 12364 ft 741 kts 128°
2026-05-04 06:17 45.79150 -82.44994 12058 ft 746 kts 128°
2026-05-04 06:18 45.75985 -82.39107 11929 ft 745 kts 128°
2026-05-04 06:18 45.72829 -82.33202 11871 ft 746 kts 128°
2026-05-04 06:18 45.69780 -82.27203 11849 ft 746 kts 126°
2026-05-04 06:20 45.49305 -81.84450 11527 ft 743 kts 134°
2026-05-04 06:20 45.45736 -81.79173 10774 ft 738 kts 136°
2026-05-04 06:21 45.30484 -81.60021 9883 ft 727 kts 147°
2026-05-04 06:21 45.26297 -81.55982 9863 ft 726 kts 148°
2026-05-04 06:22 45.22122 -81.52050 9861 ft 725 kts 148°
2026-05-04 06:22 45.17928 -81.48009 9860 ft 728 kts 145°
2026-05-04 06:25 44.85171 -81.05425 9848 ft 568 kts 139°
2026-05-04 06:30 44.82967 -81.02408 9854 ft 567 kts 139°
2026-05-04 06:30 44.80156 -80.98556 9854 ft 569 kts 139°
2026-05-04 06:31 44.77309 -80.94646 9856 ft 569 kts 139°
2026-05-04 06:31 44.74486 -80.90760 9859 ft 566 kts 139°
2026-05-04 06:31 44.71668 -80.86873 9862 ft 568 kts 139°
2026-05-04 06:31 44.68855 -80.82990 9872 ft 567 kts 139°
2026-05-04 06:32 44.66039 -80.79095 9884 ft 568 kts 139°
2026-05-04 06:33 44.46394 -80.51857 9898 ft 568 kts 138°
2026-05-04 06:34 44.43556 -80.47918 9904 ft 567 kts 138°
2026-05-04 06:34 44.40752 -80.44031 9907 ft 565 kts 138°
2026-05-04 06:34 44.37995 -80.40208 9904 ft 567 kts 138°
2026-05-04 06:34 44.35196 -80.36325 9901 ft 567 kts 138°
2026-05-04 06:35 44.32408 -80.32457 9904 ft 566 kts 138°
2026-05-04 06:36 44.15516 -80.08793 5793 ft 432 kts 138°
2026-05-04 06:37 44.13383 -80.05770 5278 ft 432 kts 138°
2026-05-04 06:37 44.11278 -80.02794 5063 ft 433 kts 138°
2026-05-04 06:37 44.09173 -79.99822 4984 ft 432 kts 138°
2026-05-04 06:37 44.07120 -79.96801 4936 ft 432 kts 130°
2026-05-04 06:38 44.06118 -79.92899 4926 ft 443 kts 91°
2026-05-04 06:38 44.06796 -79.88818 4956 ft 441 kts 65°
2026-05-04 06:40 44.11123 -79.65489 4926 ft 324 kts 143°
2026-05-04 06:40 44.09451 -79.63428 4913 ft 322 kts 144°
2026-05-04 06:40 44.07766 -79.61442 4906 ft 320 kts 145°
2026-05-04 06:40 44.06046 -79.59449 4912 ft 321 kts 146°
2026-05-04 06:41 44.04307 -79.57449 4911 ft 322 kts 146°
2026-05-04 06:41 44.02601 -79.55496 4919 ft 321 kts 146°
2026-05-04 06:41 44.00861 -79.53509 4923 ft 319 kts 146°
2026-05-04 06:41 43.99159 -79.51572 4924 ft 321 kts 146°
2026-05-04 06:42 43.97431 -79.49609 4918 ft 321 kts 146°
2026-05-04 06:42 43.95685 -79.47623 4910 ft 322 kts 146°
2026-05-04 06:42 43.93980 -79.45686 4917 ft 320 kts 146°
2026-05-04 06:44 43.83751 -79.38604 4104 ft 195 kts 223°
2026-05-04 06:44 43.82752 -79.39829 3150 ft 176 kts 238°
2026-05-04 06:44 43.81860 -79.40992 3838 ft 179 kts 226°
2026-05-04 06:45 43.80827 -79.42147 4068 ft 187 kts 226°
2026-05-04 06:45 43.79812 -79.43226 3948 ft 186 kts 224°
2026-05-04 06:45 43.78834 -79.44209 3895 ft 170 kts 225°
2026-05-04 06:45 43.77938 -79.45215 3834 ft 164 kts 227°
2026-05-04 06:46 43.77075 -79.46235 3547 ft 162 kts 228°
2026-05-04 06:46 43.76256 -79.47280 3260 ft 157 kts 231°
2026-05-04 06:46 43.75490 -79.48359 2965 ft 157 kts 233°
2026-05-04 06:46 43.74761 -79.49461 2682 ft 155 kts 234°
2026-05-04 06:48 43.70037 -79.56619 1271 ft 137 kts 228°
2026-05-04 06:48 43.69353 -79.57643 1101 ft 146 kts 226°
2026-05-04 06:49 43.68651 -79.58643 858 ft 144 kts 227°
2026-05-04 06:50 43.66900 -79.61359 547 ft 0 kts 257°
2026-05-04 06:52 43.66894 -79.61391 546 ft 9 kts 256°
2026-05-04 06:52 43.66885 -79.61506 544 ft 13 kts 291°
2026-05-04 06:52 43.66935 -79.61579 548 ft 9 kts 315°
2026-05-04 06:53 43.66973 -79.61628 549 ft 7 kts 317°
2026-05-04 06:53 43.67027 -79.61698 548 ft 14 kts 317°
2026-05-04 06:53 43.67112 -79.61810 551 ft 19 kts 316°
2026-05-04 06:53 43.67215 -79.61943 554 ft 22 kts 316°
2026-05-04 06:54 43.67334 -79.62098 561 ft 25 kts 316°
2026-05-04 06:54 43.67469 -79.62274 558 ft 29 kts 317°
2026-05-04 06:54 43.67604 -79.62447 556 ft 28 kts 317°
2026-05-04 06:54 43.67755 -79.62634 558 ft 31 kts 318°
2026-05-04 06:55 43.67903 -79.62844 562 ft 30 kts 314°
2026-05-04 06:55 43.68058 -79.63043 565 ft 31 kts 317°
2026-05-04 06:55 43.68165 -79.63185 566 ft 33 kts 316°
2026-05-04 06:55 43.68398 -79.63484 562 ft 35 kts 316°
2026-05-04 06:56 43.68517 -79.63642 564 ft 36 kts 317°
2026-05-04 06:57 43.68376 -79.64637 561 ft 18 kts 272°
2026-05-04 06:58 43.68446 -79.64753 559 ft 12 kts 316°
2026-05-04 06:58 43.68526 -79.64855 558 ft 18 kts 317°
2026-05-04 06:58 43.68635 -79.64997 556 ft 25 kts 316°
2026-05-04 06:58 43.68673 -79.65155 561 ft 15 kts 227°
2026-05-04 06:59 43.68585 -79.65245 560 ft 18 kts 193°
2026-05-04 06:59 43.68443 -79.65282 558 ft 23 kts 191°
2026-05-04 06:59 43.68325 -79.65416 560 ft 24 kts 226°
2026-05-04 06:59 43.68313 -79.65538 561 ft 11 kts 326°
2026-05-04 07:01 43.68432 -79.65720 560 ft 0 kts 317°